Погода в Курдюковской

Россия / Чеченская Республика     43°41′27″N   46°26′53″E
темп.,
°C
ветер,
м/с
пор.,
м/с
влажн.,
%
обл.,
%
осадки,
мм/ч
давл.,
гПа
погр.,
м
17 апреля, сб
сб1700:00+11в48595 0.0 1019138
03:00+11вюв41066100 0.0 1018167
06:00+11вюв3117340 0.0 1018220
09:00+19вюв71049100 0.0 1017621
12:00+22вюв5542100 0.0 1017999
15:00+22всв2341100 0.0 10171440
18:00+17в5760100 0.0 1018165
21:00+13зсз1266100 0.0 102058
18 апреля, вс
вс1800:00+14зсз4668100 0.0 1020135
03:00+13сз5878100 0.0 1020401
06:00+12ссз2585100 0.0 1021260
09:00+16св3363100 0.0 1020822
12:00+21св444410 0.0 10181402
15:00+20св5448100 0.1 10171112
18:00+16ссв4661100 0.0 1019188
21:00+14вюв2266100 0.1 101941
19 апреля, пн
пн1900:00+12всв227245 0.0 101818
03:00+11вюв2275100 0.0 101826
06:00+11вюв2475100 0.0 101883
09:00+17вюв4553100 0.0 1018543
12:00+22вюв554497 0.0 1016998
15:00+22вюв674416 0.0 1015989
18:00+16вюв6115870 0.0 1014382
21:00+13в6146372 0.0 1015347
20 апреля, вт
вт2000:00+13вюв71662100 0.0 1012389
03:00+14вюв71760100 0.0 1011415
06:00+14вюв9196376 0.0 1009471
09:00+18вюв122056100 0.0 1007551
12:00+21вюв111751100 0.0 1005585
15:00+19вюв112060100 0.0 1003504
18:00+15вюв81670100 0.0 1005417
21:00+14ю2382100 0.2 1009119
21 апреля, ср
ср2100:00+14з6128196 0.1 1012478
03:00+14зсз81373100 0.1 1014668
06:00+14зсз71161100 0.0 1017894
09:00+14зсз61067100 0.0 1019802
12:00+16сз785989 0.0 10191019
15:00+16сз6757100 0.0 10191203
18:00+14зсз6961100 0.0 1020564
21:00+12з5970100 0.2 1021404